Location: Go?cza
(50.3372°N, 19.9313°E)
Time: 22:07:11
(UTC+00:00)

Cosmos 2154 Rocket - Pass Details

Date: 23 May 2024
Orbit: 966 x 995 km, 82.9° (Epoch: 21 June)

Event Time Altitude Azimuth Distance (km) Brightness Sun altitude
Rises 01:32:34 0° 176° (S) 3,644 6.6 -9.2°
Reaches altitude 10° 01:35:05 10° 174° (S) 2,701 5.9 -8.9°
Maximum altitude 01:41:10 64° 94° (E) 1,067 4.4 -8.2°
Drops below altitude 10° 01:47:19 10° 15° (NNE) 2,723 7.4 -7.6°
Sets 01:49:51 0° 12° (NNE) 3,677 8.1 -7.3°
